QPF
0.01 0.01 0.01 0.02 0.03 0.03 0.04 0.04 0.03 0.02 0.01 0.01 0.01 0.01 0.01 0.02 0.03 0.03 0.02 0.01 0.01 0.02 0.04 0.05 0.05 0.05 0.04 0.05 0.04 0.04 0.05 0.05 0.04 0.04 0.03 0.03 0.03 0.04 0.04 0.03 0.02 0.02 0.02
0.00 0.00 0.00 0.01 0.01 0.02 0.03 0.03 0.04 0.04 0.03 0.01 0.01 0.01 0.01 0.01 0.02 0.04 0.04 0.02 0.01 0.02 0.03 0.05 0.05 0.07 0.08 0.07 0.05 0.04 0.03 0.04 0.04 0.04 0.04 0.03 0.03 0.04 0.04 0.04 0.03 0.02 0.02
0.01 0.00 0.00 0.00 0.00 0.01 0.01 0.01 0.02 0.04 0.05 0.03 0.02 0.02 0.02 0.02 0.01 0.02 0.04 0.04 0.02 0.01 0.02 0.04 0.05 0.05 0.08 0.10 0.08 0.05 0.03 0.02 0.02 0.03 0.03 0.03 0.03 0.03 0.04 0.04 0.04 0.03 0.03
0.01 0.01 0.00 0.00 0.00 0.00 0.00 0.00 0.01 0.02 0.03 0.04 0.03 0.04 0.04 0.04 0.03 0.02 0.03 0.04 0.03 0.02 0.01 0.03 0.04 0.04 0.03 0.04 0.05 0.05 0.04 0.02 0.02 0.02 0.03 0.02 0.03 0.03 0.03 0.04 0.05 0.04 0.04
0.02 0.01 0.01 0.01 0.00 0.00 0.00 0.00 0.00 0.01 0.02 0.02 0.03 0.03 0.05 0.06 0.05 0.04 0.03 0.03 0.04 0.02 0.01 0.02 0.03 0.03 0.02 0.02 0.03 0.03 0.03 0.02 0.02 0.02 0.03 0.02 0.02 0.03 0.03 0.03 0.05 0.05 0.05
0.03 0.03 0.01 0.01 0.01 0.01 0.01 0.00 0.00 0.01 0.01 0.02 0.02 0.02 0.04 0.06 0.07 0.07 0.06 0.04 0.04 0.03 0.02 0.01 0.02 0.03 0.02 0.02 0.02 0.03 0.03 0.03 0.02 0.02 0.02 0.03 0.03 0.03 0.02 0.02 0.03 0.04 0.05
0.04 0.03 0.02 0.01 0.01 0.01 0.01 0.01 0.01 0.01 0.01 0.02 0.03 0.03 0.03 0.04 0.06 0.07 0.07 0.07 0.06 0.05 0.03 0.02 0.02 0.02 0.02 0.02 0.02 0.03 0.03 0.03 0.03 0.03 0.02 0.02 0.03 0.04 0.03 0.03 0.04 0.04 0.04
0.04 0.04 0.02 0.01 0.01 0.01 0.01 0.01 0.01 0.01 0.01 0.02 0.04 0.05 0.04 0.04 0.04 0.06 0.06 0.06 0.06 0.06 0.05 0.03 0.02 0.02 0.02 0.02 0.03 0.03 0.03 0.03 0.04 0.04 0.03 0.02 0.02 0.04 0.04 0.04 0.05 0.06 0.06
0.03 0.03 0.03 0.02 0.01 0.01 0.01 0.01 0.01 0.01 0.01 0.02 0.03 0.05 0.05 0.06 0.05 0.05 0.06 0.05 0.05 0.06 0.06 0.05 0.03 0.02 0.01 0.02 0.02 0.03 0.03 0.03 0.03 0.05 0.05 0.04 0.03 0.03 0.05 0.06 0.06 0.06 0.08
0.04 0.03 0.03 0.02 0.01 0.02 0.02 0.01 0.01 0.01 0.02 0.02 0.03 0.04 0.05 0.06 0.06 0.06 0.06 0.07 0.05 0.04 0.05 0.05 0.04 0.03 0.02 0.01 0.01 0.03 0.03 0.02 0.03 0.04 0.05 0.05 0.04 0.04 0.04 0.05 0.06 0.07 0.08
0.07 0.06 0.04 0.03 0.01 0.01 0.01 0.01 0.02 0.01 0.02 0.02 0.03 0.04 0.05 0.05 0.05 0.06 0.07 0.07 0.08 0.06 0.04 0.04 0.04 0.03 0.02 0.01 0.01 0.02 0.02 0.02 0.03 0.04 0.05 0.05 0.06 0.05 0.04 0.04 0.05 0.08 0.09
0.06 0.05 0.05 0.04 0.02 0.01 0.01 0.01 0.01 0.02 0.02 0.02 0.02 0.04 0.06 0.06 0.06 0.05 0.07 0.09 0.10 0.09 0.07 0.05 0.04 0.04 0.03 0.02 0.01 0.02 0.02 0.02 0.02 0.03 0.04 0.05 0.05 0.06 0.06 0.05 0.06 0.07 0.08
0.06 0.04 0.03 0.03 0.02 0.01 0.01 0.01 0.01 0.01 0.02 0.02 0.03 0.03 0.05 0.06 0.06 0.05 0.05 0.08 0.10 0.11 0.11 0.10 0.07 0.06 0.06 0.04 0.02 0.02 0.02 0.02 0.02 0.03 0.04 0.04 0.04 0.05 0.06 0.07 0.07 0.08 0.09
0.06 0.05 0.03 0.02 0.02 0.01 0.01 0.00 0.00 0.01 0.01 0.02 0.02 0.03 0.04 0.06 0.07 0.06 0.05 0.06 0.09 0.11 0.11 0.10 0.08 0.06 0.07 0.07 0.05 0.04 0.02 0.02 0.02 0.03 0.04 0.04 0.03 0.03 0.05 0.06 0.07 0.09 0.11
0.05 0.05 0.05 0.04 0.03 0.01 0.01 0.01 0.00 0.00 0.00 0.01 0.01 0.02 0.03 0.05 0.08 0.08 0.07 0.06 0.08 0.09 0.10 0.10 0.08 0.07 0.07 0.07 0.07 0.06 0.04 0.04 0.03 0.02 0.03 0.04 0.04 0.03 0.03 0.04 0.06 0.07 0.08
0.05 0.05 0.06 0.06 0.05 0.03 0.01 0.01 0.01 0.00 0.00 0.01 0.01 0.01 0.02 0.03 0.05 0.07 0.07 0.07 0.07 0.08 0.08 0.08 0.09 0.09 0.08 0.07 0.07 0.06 0.05 0.05 0.04 0.04 0.04 0.03 0.04 0.04 0.03 0.03 0.04 0.05 0.06
0.04 0.04 0.05 0.06 0.06 0.04 0.02 0.02 0.01 0.01 0.01 0.00 0.01 0.01 0.01 0.02 0.03 0.05 0.06 0.06 0.06 0.06 0.06 0.05 0.06 0.07 0.09 0.08 0.07 0.06 0.06 0.05 0.05 0.05 0.04 0.04 0.04 0.04 0.05 0.04 0.05 0.04 0.05
0.03 0.04 0.04 0.05 0.06 0.06 0.03 0.02 0.01 0.01 0.01 0.00 0.01 0.01 0.01 0.02 0.02 0.04 0.06 0.05 0.05 0.04 0.05 0.05 0.04 0.05 0.08 0.09 0.09 0.08 0.07 0.06 0.05 0.06 0.05 0.05 0.05 0.05 0.06 0.06 0.06 0.07 0.07
0.04 0.04 0.04 0.04 0.04 0.04 0.04 0.04 0.03 0.02 0.01 0.01 0.01 0.01 0.01 0.02 0.02 0.03 0.05 0.05 0.05 0.04 0.03 0.04 0.03 0.03 0.06 0.07 0.08 0.09 0.08 0.07 0.06 0.05 0.05 0.05 0.06 0.06 0.06 0.06 0.06 0.07 0.09
0.04 0.04 0.03 0.03 0.03 0.03 0.03 0.03 0.03 0.03 0.02 0.01 0.01 0.01 0.01 0.02 0.03 0.03 0.04 0.05 0.05 0.05 0.04 0.04 0.03 0.03 0.04 0.06 0.07 0.08 0.09 0.08 0.07 0.06 0.05 0.05 0.06 0.06 0.05 0.05 0.05 0.05 0.07
0.03 0.03 0.03 0.03 0.03 0.03 0.02 0.02 0.02 0.01 0.01 0.01 0.01 0.01 0.01 0.01 0.02 0.03 0.05 0.05 0.06 0.06 0.05 0.04 0.04 0.03 0.04 0.05 0.07 0.07 0.07 0.06 0.06 0.05 0.05 0.05 0.04 0.04 0.05 0.05 0.05 0.04 0.05
0.03 0.03 0.03 0.03 0.03 0.02 0.02 0.02 0.02 0.02 0.01 0.01 0.01 0.01 0.01 0.01 0.01 0.02 0.04 0.05 0.06 0.07 0.06 0.04 0.04 0.04 0.04 0.03 0.04 0.05 0.07 0.06 0.06 0.05 0.04 0.04 0.04 0.04 0.04 0.05 0.05 0.04 0.04
0.03 0.03 0.03 0.03 0.03 0.03 0.02 0.02 0.02 0.02 0.02 0.01 0.01 0.01 0.01 0.01 0.01 0.01 0.03 0.03 0.05 0.06 0.06 0.05 0.04 0.03 0.04 0.04 0.04 0.04 0.05 0.05 0.04 0.04 0.04 0.04 0.04 0.03 0.04 0.05 0.05 0.05 0.04
0.04 0.03 0.03 0.03 0.04 0.04 0.03 0.02 0.02 0.02 0.02 0.02 0.01 0.01 0.01 0.01 0.01 0.01 0.02 0.03 0.03 0.04 0.04 0.04 0.02 0.02 0.03 0.04 0.05 0.06 0.06 0.06 0.05 0.05 0.04 0.05 0.05 0.04 0.04 0.05 0.05 0.04 0.04
0.07 0.03 0.03 0.03 0.04 0.04 0.05 0.04 0.03 0.02 0.03 0.02 0.01 0.01 0.01 0.01 0.01 0.02 0.04 0.04 0.04 0.04 0.04 0.04 0.03 0.04 0.04 0.04 0.05 0.06 0.06 0.06 0.06 0.06 0.05 0.05 0.06 0.05 0.05 0.05 0.05 0.04 0.04
0.07 0.06 0.04 0.03 0.03 0.04 0.05 0.05 0.04 0.03 0.03 0.02 0.02 0.01 0.01 0.01 0.02 0.03 0.05 0.05 0.05 0.04 0.04 0.04 0.03 0.03 0.03 0.03 0.03 0.03 0.03 0.04 0.04 0.05 0.04 0.03 0.05 0.06 0.06 0.06 0.06 0.04 0.05
MSLP
1027.43 1027.64 1027.81 1027.92 1027.97 1027.95 1027.87 1027.75 1027.60 1027.43 1027.27 1027.11 1026.97 1026.85 1026.74 1026.65 1026.56 1026.46 1026.35 1026.22 1026.07 1025.89 1025.68 1025.45 1025.21 1024.96 1024.72 1024.49 1024.26 1024.04 1023.82 1023.59 1023.36 1023.13 1022.89 1022.66 1022.44 1022.23 1022.04 1021.84 1021.64 1021.41 1021.15
1027.37 1027.61 1027.80 1027.95 1028.03 1028.04 1027.98 1027.87 1027.72 1027.54 1027.35 1027.18 1027.04 1026.93 1026.85 1026.79 1026.76 1026.73 1026.69 1026.63 1026.54 1026.41 1026.24 1026.04 1025.80 1025.55 1025.29 1025.02 1024.75 1024.48 1024.21 1023.93 1023.65 1023.37 1023.09 1022.83 1022.57 1022.34 1022.12 1021.91 1021.70 1021.47 1021.22
1027.29 1027.54 1027.77 1027.95 1028.06 1028.11 1028.08 1027.98 1027.83 1027.64 1027.44 1027.25 1027.09 1026.97 1026.90 1026.88 1026.88 1026.90 1026.92 1026.93 1026.90 1026.82 1026.69 1026.52 1026.30 1026.05 1025.78 1025.49 1025.19 1024.88 1024.56 1024.24 1023.91 1023.59 1023.26 1022.95 1022.66 1022.39 1022.13 1021.89 1021.66 1021.42 1021.16
1027.21 1027.48 1027.73 1027.95 1028.10 1028.18 1028.18 1028.10 1027.95 1027.75 1027.53 1027.32 1027.14 1027.00 1026.92 1026.90 1026.92 1026.98 1027.04 1027.09 1027.11 1027.08 1027.00 1026.86 1026.67 1026.44 1026.17 1025.87 1025.56 1025.23 1024.88 1024.52 1024.16 1023.78 1023.41 1023.06 1022.71 1022.39 1022.09 1021.81 1021.54 1021.28 1021.00
1027.16 1027.44 1027.72 1027.96 1028.15 1028.26 1028.29 1028.22 1028.08 1027.88 1027.64 1027.40 1027.19 1027.02 1026.92 1026.88 1026.89 1026.95 1027.03 1027.11 1027.17 1027.18 1027.14 1027.04 1026.89 1026.68 1026.43 1026.15 1025.84 1025.50 1025.14 1024.76 1024.36 1023.95 1023.54 1023.13 1022.74 1022.37 1022.01 1021.69 1021.37 1021.07 1020.78
1027.10 1027.41 1027.70 1027.97 1028.19 1028.33 1028.38 1028.34 1028.20 1028.00 1027.75 1027.49 1027.25 1027.05 1026.91 1026.84 1026.83 1026.87 1026.95 1027.03 1027.10 1027.14 1027.13 1027.07 1026.96 1026.78 1026.57 1026.31 1026.01 1025.68 1025.31 1024.92 1024.51 1024.07 1023.62 1023.18 1022.74 1022.31 1021.91 1021.53 1021.18 1020.84 1020.52
1027.02 1027.34 1027.66 1027.95 1028.18 1028.35 1028.43 1028.41 1028.30 1028.11 1027.86 1027.59 1027.33 1027.10 1026.93 1026.82 1026.77 1026.78 1026.83 1026.90 1026.96 1027.01 1027.02 1026.98 1026.89 1026.75 1026.57 1026.34 1026.06 1025.75 1025.39 1025.00 1024.57 1024.12 1023.65 1023.17 1022.69 1022.23 1021.78 1021.36 1020.97 1020.60 1020.25
1026.87 1027.21 1027.55 1027.85 1028.11 1028.30 1028.41 1028.42 1028.34 1028.18 1027.96 1027.71 1027.45 1027.21 1027.01 1026.86 1026.77 1026.74 1026.75 1026.77 1026.81 1026.84 1026.84 1026.81 1026.74 1026.62 1026.46 1026.25 1026.00 1025.70 1025.36 1024.97 1024.55 1024.09 1023.60 1023.10 1022.59 1022.10 1021.62 1021.17 1020.75 1020.36 1019.99
1026.62 1026.99 1027.35 1027.67 1027.95 1028.16 1028.30 1028.36 1028.33 1028.22 1028.06 1027.84 1027.61 1027.39 1027.18 1027.01 1026.89 1026.80 1026.75 1026.72 1026.71 1026.69 1026.66 1026.61 1026.52 1026.41 1026.26 1026.06 1025.83 1025.54 1025.22 1024.84 1024.42 1023.96 1023.46 1022.96 1022.44 1021.93 1021.44 1020.98 1020.54 1020.14 1019.75
1026.27 1026.68 1027.06 1027.40 1027.70 1027.95 1028.13 1028.24 1028.27 1028.24 1028.14 1028.00 1027.82 1027.63 1027.45 1027.27 1027.11 1026.98 1026.87 1026.77 1026.68 1026.60 1026.51 1026.41 1026.30 1026.16 1025.99 1025.80 1025.57 1025.29 1024.98 1024.61 1024.20 1023.74 1023.26 1022.75 1022.24 1021.73 1021.24 1020.77 1020.34 1019.93 1019.55
1025.84 1026.29 1026.70 1027.07 1027.39 1027.67 1027.90 1028.07 1028.17 1028.22 1028.20 1028.14 1028.04 1027.91 1027.76 1027.60 1027.42 1027.25 1027.08 1026.91 1026.74 1026.57 1026.41 1026.24 1026.07 1025.89 1025.70 1025.49 1025.25 1024.97 1024.66 1024.31 1023.90 1023.46 1022.99 1022.49 1021.99 1021.50 1021.02 1020.56 1020.13 1019.73 1019.35
1025.35 1025.85 1026.30 1026.70 1027.06 1027.37 1027.64 1027.86 1028.04 1028.16 1028.23 1028.26 1028.24 1028.17 1028.07 1027.93 1027.75 1027.55 1027.33 1027.09 1026.84 1026.59 1026.33 1026.09 1025.85 1025.61 1025.38 1025.14 1024.88 1024.60 1024.29 1023.94 1023.55 1023.13 1022.67 1022.19 1021.71 1021.23 1020.77 1020.33 1019.92 1019.53 1019.15
1024.84 1025.39 1025.89 1026.33 1026.72 1027.07 1027.37 1027.64 1027.86 1028.05 1028.19 1028.29 1028.34 1028.34 1028.28 1028.17 1028.01 1027.79 1027.53 1027.23 1026.91 1026.58 1026.25 1025.93 1025.61 1025.32 1025.03 1024.76 1024.48 1024.19 1023.87 1023.53 1023.15 1022.75 1022.31 1021.85 1021.39 1020.93 1020.48 1020.06 1019.65 1019.27 1018.90
1024.33 1024.94 1025.49 1025.97 1026.40 1026.77 1027.10 1027.39 1027.64 1027.86 1028.05 1028.20 1028.30 1028.34 1028.33 1028.25 1028.10 1027.89 1027.61 1027.28 1026.91 1026.52 1026.12 1025.72 1025.35 1024.99 1024.66 1024.34 1024.03 1023.73 1023.41 1023.07 1022.70 1022.30 1021.88 1021.44 1020.99 1020.55 1020.11 1019.70 1019.31 1018.93 1018.57
1023.84 1024.51 1025.11 1025.63 1026.09 1026.48 1026.82 1027.12 1027.38 1027.60 1027.80 1027.96 1028.08 1028.15 1028.17 1028.12 1027.99 1027.79 1027.51 1027.17 1026.77 1026.34 1025.90 1025.45 1025.02 1024.61 1024.23 1023.88 1023.54 1023.21 1022.88 1022.54 1022.18 1021.78 1021.37 1020.94 1020.50 1020.06 1019.63 1019.22 1018.83 1018.46 1018.10
1023.37 1024.09 1024.74 1025.30 1025.79 1026.19 1026.53 1026.82 1027.05 1027.25 1027.43 1027.57 1027.69 1027.77 1027.79 1027.76 1027.66 1027.47 1027.21 1026.88 1026.48 1026.04 1025.57 1025.09 1024.62 1024.17 1023.75 1023.36 1022.99 1022.63 1022.28 1021.93 1021.55 1021.16 1020.74 1020.31 1019.86 1019.42 1018.99 1018.58 1018.19 1017.82 1017.46
1022.93 1023.69 1024.38 1024.98 1025.48 1025.90 1026.23 1026.49 1026.69 1026.84 1026.97 1027.07 1027.16 1027.21 1027.24 1027.21 1027.13 1026.97 1026.73 1026.42 1026.04 1025.61 1025.13 1024.64 1024.14 1023.66 1023.20 1022.76 1022.36 1021.97 1021.59 1021.21 1020.81 1020.40 1019.97 1019.52 1019.06 1018.60 1018.16 1017.74 1017.34 1016.97 1016.62
1022.51 1023.30 1024.02 1024.65 1025.17 1025.59 1025.91 1026.14 1026.29 1026.40 1026.46 1026.51 1026.55 1026.57 1026.57 1026.55 1026.47 1026.34 1026.13 1025.85 1025.49 1025.07 1024.60 1024.10 1023.58 1023.07 1022.57 1022.10 1021.65 1021.22 1020.80 1020.38 1019.95 1019.51 1019.05 1018.58 1018.09 1017.61 1017.15 1016.71 1016.30 1015.93 1015.60
1022.13 1022.94 1023.68 1024.32 1024.86 1025.28 1025.58 1025.78 1025.90 1025.94 1025.95 1025.94 1025.92 1025.90 1025.87 1025.83 1025.76 1025.64 1025.46 1025.20 1024.87 1024.46 1024.00 1023.49 1022.96 1022.41 1021.88 1021.36 1020.87 1020.39 1019.93 1019.46 1018.99 1018.51 1018.02 1017.51 1016.99 1016.48 1016.00 1015.54 1015.12 1014.74 1014.41
1021.82 1022.62 1023.36 1024.01 1024.55 1024.97 1025.26 1025.43 1025.50 1025.50 1025.46 1025.39 1025.32 1025.25 1025.19 1025.13 1025.05 1024.93 1024.75 1024.51 1024.19 1023.79 1023.33 1022.81 1022.26 1021.69 1021.12 1020.56 1020.02 1019.50 1018.99 1018.48 1017.97 1017.45 1016.91 1016.37 1015.82 1015.28 1014.76 1014.28 1013.85 1013.46 1013.13
1021.59 1022.37 1023.09 1023.73 1024.25 1024.66 1024.93 1025.08 1025.12 1025.08 1024.99 1024.87 1024.75 1024.64 1024.54 1024.45 1024.35 1024.22 1024.03 1023.79 1023.46 1023.06 1022.59 1022.06 1021.49 1020.90 1020.30 1019.71 1019.14 1018.58 1018.03 1017.48 1016.93 1016.37 1015.80 1015.22 1014.64 1014.08 1013.53 1013.02 1012.57 1012.17 1011.82
1021.46 1022.19 1022.88 1023.48 1023.97 1024.34 1024.59 1024.71 1024.72 1024.64 1024.52 1024.36 1024.20 1024.05 1023.91 1023.78 1023.65 1023.49 1023.28 1023.02 1022.68 1022.26 1021.78 1021.24 1020.65 1020.05 1019.43 1018.82 1018.23 1017.65 1017.07 1016.50 1015.93 1015.34 1014.75 1014.14 1013.53 1012.94 1012.37 1011.83 1011.35 1010.92 1010.56
1021.42 1022.09 1022.71 1023.25 1023.69 1024.01 1024.22 1024.30 1024.28 1024.18 1024.02 1023.83 1023.63 1023.45 1023.27 1023.10 1022.92 1022.72 1022.48 1022.18 1021.82 1021.38 1020.88 1020.33 1019.74 1019.13 1018.52 1017.91 1017.31 1016.73 1016.15 1015.58 1014.99 1014.39 1013.78 1013.16 1012.54 1011.92 1011.32 1010.77 1010.25 1009.79 1009.39
1021.46 1022.05 1022.58 1023.03 1023.39 1023.65 1023.79 1023.83 1023.77 1023.63 1023.45 1023.23 1023.01 1022.79 1022.57 1022.36 1022.14 1021.90 1021.61 1021.28 1020.88 1020.42 1019.91 1019.36 1018.77 1018.17 1017.58 1016.99 1016.41 1015.84 1015.28 1014.72 1014.14 1013.54 1012.93 1012.30 1011.66 1011.03 1010.41 1009.83 1009.28 1008.78 1008.33
1021.52 1022.01 1022.44 1022.79 1023.05 1023.22 1023.30 1023.27 1023.17 1023.00 1022.79 1022.55 1022.31 1022.06 1021.82 1021.57 1021.30 1021.02 1020.69 1020.31 1019.88 1019.41 1018.89 1018.33 1017.76 1017.19 1016.62 1016.07 1015.53 1015.00 1014.46 1013.92 1013.36 1012.78 1012.17 1011.54 1010.89 1010.25 1009.61 1009.00 1008.42 1007.87 1007.38
1021.55 1021.93 1022.25 1022.49 1022.65 1022.73 1022.73 1022.65 1022.50 1022.30 1022.07 1021.82 1021.55 1021.29 1021.02 1020.74 1020.44 1020.11 1019.74 1019.33 1018.88 1018.38 1017.86 1017.32 1016.77 1016.22 1015.69 1015.18 1014.68 1014.18 1013.68 1013.17 1012.63 1012.06 1011.45 1010.82 1010.17 1009.51 1008.85 1008.21 1007.60 1007.01 1006.47
Thickness
5590 5591 5592 5593 5595 5597 5599 5602 5605 5607 5610 5612 5615 5617 5619 5622 5623 5625 5626 5626 5628 5630 5631 5633 5634 5636 5637 5638 5639 5640 5640 5641 5642 5642 5642 5643 5643 5644 5644 5644 5644 5644 5644
5580 5581 5582 5584 5585 5587 5589 5592 5595 5598 5601 5603 5605 5608 5610 5613 5615 5616 5618 5619 5620 5621 5623 5625 5626 5628 5629 5630 5632 5632 5633 5633 5634 5635 5636 5636 5637 5637 5638 5638 5638 5638 5638
5569 5570 5572 5573 5574 5576 5578 5582 5585 5588 5591 5593 5595 5598 5601 5603 5606 5608 5610 5611 5612 5613 5615 5616 5618 5619 5621 5622 5623 5624 5625 5625 5626 5627 5628 5629 5630 5631 5631 5632 5632 5632 5633
5557 5559 5560 5561 5563 5565 5568 5571 5574 5577 5580 5583 5585 5588 5591 5593 5596 5599 5601 5602 5604 5605 5606 5607 5608 5610 5612 5613 5614 5615 5616 5617 5618 5619 5620 5621 5622 5623 5624 5625 5625 5626 5626
5545 5547 5548 5549 5551 5553 5556 5559 5562 5565 5568 5571 5574 5577 5581 5583 5586 5589 5592 5593 5595 5596 5598 5599 5599 5600 5602 5603 5605 5606 5607 5608 5609 5610 5611 5612 5614 5616 5617 5618 5619 5619 5620
5534 5535 5536 5538 5539 5542 5544 5546 5550 5552 5556 5559 5563 5567 5570 5573 5576 5579 5582 5584 5585 5587 5588 5590 5591 5591 5592 5594 5595 5596 5598 5599 5600 5601 5603 5604 5606 5607 5609 5610 5611 5612 5613
5523 5524 5525 5526 5527 5530 5531 5534 5537 5540 5543 5547 5552 5556 5560 5563 5567 5569 5572 5574 5576 5577 5579 5580 5582 5582 5583 5584 5586 5587 5588 5589 5591 5592 5593 5595 5596 5598 5601 5602 5603 5604 5606
5512 5513 5513 5515 5516 5517 5519 5521 5524 5527 5530 5533 5538 5544 5550 5555 5557 5558 5561 5563 5565 5567 5568 5570 5571 5572 5574 5575 5575 5576 5578 5579 5581 5582 5584 5585 5587 5589 5591 5593 5595 5596 5598
5502 5502 5503 5504 5504 5506 5507 5509 5511 5513 5517 5520 5524 5528 5535 5542 5542 5548 5551 5552 5554 5556 5557 5559 5560 5561 5563 5565 5565 5566 5567 5569 5570 5572 5574 5575 5577 5579 5581 5584 5586 5588 5589
5492 5491 5492 5493 5494 5494 5495 5497 5498 5500 5503 5507 5510 5514 5518 5522 5525 5532 5537 5540 5542 5544 5546 5547 5548 5550 5551 5553 5554 5555 5556 5558 5559 5561 5563 5565 5567 5569 5571 5574 5576 5578 5580
5480 5480 5480 5481 5482 5483 5484 5485 5486 5487 5490 5493 5496 5500 5504 5507 5510 5515 5522 5525 5528 5531 5533 5535 5536 5538 5539 5541 5542 5543 5544 5546 5548 5550 5552 5554 5556 5558 5560 5562 5565 5568 5570
5469 5469 5469 5470 5470 5471 5472 5473 5474 5475 5477 5479 5482 5485 5490 5494 5498 5502 5506 5509 5513 5517 5519 5522 5523 5525 5526 5528 5530 5531 5532 5534 5536 5538 5540 5541 5544 5546 5549 5551 5554 5556 5558
5458 5458 5458 5458 5459 5459 5460 5460 5461 5462 5464 5466 5469 5472 5476 5480 5483 5486 5489 5493 5497 5501 5506 5509 5510 5512 5513 5515 5517 5518 5519 5521 5523 5525 5527 5529 5531 5533 5536 5538 5541 5544 5546
5446 5446 5445 5446 5447 5447 5447 5447 5448 5449 5451 5452 5455 5458 5461 5465 5468 5471 5473 5477 5482 5488 5494 5497 5498 5498 5500 5501 5503 5504 5506 5508 5509 5511 5513 5515 5517 5520 5522 5525 5527 5531 5533
5433 5433 5433 5432 5433 5434 5434 5434 5435 5436 5437 5439 5441 5443 5447 5450 5453 5456 5458 5461 5465 5472 5481 5485 5485 5485 5485 5486 5489 5491 5493 5494 5495 5497 5499 5501 5503 5506 5508 5511 5514 5516 5519
5418 5419 5419 5419 5419 5420 5421 5421 5422 5423 5424 5426 5427 5429 5432 5435 5438 5441 5444 5447 5450 5454 5461 5469 5469 5469 5470 5472 5474 5476 5478 5479 5482 5484 5486 5487 5489 5491 5494 5496 5499 5502 5504
5405 5406 5406 5406 5405 5406 5407 5408 5409 5410 5411 5413 5414 5416 5418 5420 5423 5426 5429 5432 5435 5439 5444 5452 5453 5454 5456 5457 5459 5461 5463 5464 5467 5469 5471 5473 5475 5477 5479 5482 5484 5487 5490
5392 5392 5392 5392 5392 5392 5394 5395 5397 5397 5398 5400 5401 5402 5404 5406 5409 5411 5414 5418 5421 5424 5428 5433 5437 5439 5441 5442 5444 5446 5448 5450 5453 5455 5456 5459 5462 5464 5466 5468 5470 5474 5476
5379 5378 5379 5380 5379 5380 5381 5382 5383 5384 5385 5386 5387 5389 5390 5392 5395 5397 5400 5404 5407 5409 5413 5417 5423 5424 5426 5427 5429 5431 5433 5435 5438 5440 5442 5444 5447 5449 5451 5454 5456 5459 5462
5366 5366 5366 5367 5367 5368 5369 5370 5370 5371 5372 5373 5374 5375 5377 5379 5381 5384 5386 5390 5392 5395 5399 5403 5408 5411 5412 5413 5414 5416 5419 5420 5423 5425 5427 5430 5432 5434 5437 5440 5443 5445 5447
5355 5353 5354 5355 5355 5355 5357 5357 5357 5359 5359 5360 5361 5362 5364 5366 5367 5370 5373 5377 5379 5382 5386 5390 5395 5397 5398 5399 5401 5402 5404 5406 5408 5409 5412 5416 5418 5421 5422 5425 5427 5429 5431
5343 5342 5342 5342 5343 5343 5344 5344 5345 5346 5347 5349 5350 5351 5352 5353 5355 5357 5361 5363 5366 5370 5374 5378 5382 5385 5387 5387 5388 5388 5389 5391 5395 5397 5397 5401 5402 5405 5408 5410 5413 5415 5417
5332 5331 5331 5331 5332 5332 5332 5333 5332 5334 5336 5337 5339 5339 5340 5342 5342 5345 5348 5350 5353 5357 5360 5364 5369 5373 5374 5376 5374 5375 5376 5377 5381 5382 5381 5386 5388 5391 5394 5397 5399 5401 5403
5320 5321 5321 5321 5322 5322 5321 5322 5321 5322 5324 5326 5327 5328 5329 5330 5331 5334 5336 5338 5342 5345 5348 5352 5357 5361 5360 5360 5359 5360 5361 5362 5364 5365 5366 5370 5374 5377 5380 5383 5386 5388 5389
5310 5311 5311 5311 5312 5312 5311 5311 5310 5311 5313 5315 5316 5317 5318 5320 5322 5323 5325 5328 5332 5335 5336 5339 5343 5344 5345 5346 5345 5344 5345 5348 5351 5352 5352 5354 5359 5361 5366 5370 5373 5375 5376
5300 5300 5302 5302 5303 5303 5301 5301 5301 5301 5303 5305 5306 5307 5309 5310 5312 5313 5315 5318 5321 5325 5326 5328 5329 5331 5331 5332 5331 5332 5333 5335 5337 5339 5340 5340 5344 5345 5350 5357 5360 5361 5363